Find STARLINK-37475

NORAD ID: 68839 Int'l Des: 2026-094A Owner: SPXS Country: US Constellation: starlink operational
LEOCIRCULARRETROGRADE

当前视图

正在加载3D地球...

About STARLINK-37475

STARLINK-37475 (NORAD 68839) is a starlink constellation satellite (v2 mini) launched Apr 26, 2026 by SPXS of US. It operates in LEO, CIRCULAR, RETROGRADE orbit with a mass of 575.00 kg.

关于 STARLINK-37475

正在加载描述...

即将过境

Passes for default location (London). Set your location on the main map for personalized predictions.

高度历史

Loading altitude history...

两行轨道根数

1 68839U 26094A 26166.99026089 .00012718 00000-0 39560-3 0 9994
2 68839 97.2830 181.4332 0001419 93.2959 266.8446 15.33445177 7866
Epoch: Jun 15, 2026 • Age: 8 hours

当前状态

高度 467.7 km
速度 7.63 km/s
星下点 13.56°N, 160.57°E
发射日期 Apr 26, 2026
运行时间 0.1 years
类型 internet

技术详情

分类 Payload
质量 575.00 kg
干质量 530.00 kg
总质量 575.00 kg
长度 0.30 m
直径 4.10 m
跨度 29.00 m
形状 Box + pan
制造商 SPXS
平台类型 Starlink V2MO
阶段状态 In Orbit
所有者/国家 SPXS/US

Most Searched